Location: Street
(51.1247°N, 2.7429°W)
Time: 17:01:59
(UTC+01:00)

CAS-6 - Pass Details

Date: 04 April 2023
Orbit: 610 x 632 km, 97.9° (Epoch: 03 June)

Event Time Altitude Azimuth Distance (km) Brightness Sun altitude
Exits shadow 00:49:59 12° 296° (WNW) 1,879 ? -33.1°
Drops below altitude 10° 00:50:41 10° 304° (NW) 2,006 ? -33.1°
Sets 00:53:57 0° 331° (NNW) 2,926 ? -33.2°
